When you browse on this site, cookies collect data to enhance your experience and personalize the content and advertising you see.
Visit our Privacy Policy to learn more. By continuing to use the site, you agree to this use of cookies and data.
  • In Schweiz
  • Länderverzeichnis
  • Für 7 Tage
  • Wassertemperatur
  • Satellitenkarten
  • Wetterkarte
  • Widgets
  • user-avatar
    Anmelden

    Stündliche Wetter Plateaux

    Heute, 17 Juli, Mittwoch

    Zeit Temperatur Niederschläge Wind Luftdruck Luftfeuchtigkeit
    00:00 +27°C° 0 mm 1 m/S 722 mmHg 72%
    01:00 +27°C° 0 mm 1 m/S 722 mmHg 77%
    02:00 +26°C° 0 mm 1 m/S 722 mmHg 78%
    03:00 +26°C° 0 mm 1 m/S 721 mmHg 79%
    04:00 +25°C° 0 mm 1 m/S 721 mmHg 81%
    05:00 +26°C° 0 mm 1 m/S 722 mmHg 80%
    06:00 +26°C° 0 mm 1 m/S 722 mmHg 79%
    07:00 +26°C° 0 mm 1 m/S 723 mmHg 78%
    08:00 +28°C° 0 mm 1 m/S 723 mmHg 69%
    09:00 +30°C° 0 mm 1 m/S 723 mmHg 60%
    10:00 +32°C° 0 mm 1 m/S 723 mmHg 51%
    11:00 +34°C° 0 mm 1 m/S 723 mmHg 47%
    12:00 +35°C° 0 mm 1 m/S 722 mmHg 42%
    13:00 +36°C° 0 mm 1 m/S 721 mmHg 38%
    14:00 +35°C° 0 mm 1 m/S 720 mmHg 40%
    15:00 +34°C° 0 mm 1 m/S 720 mmHg 42%
    16:00 +34°C° 0 mm 1 m/S 719 mmHg 44%
    17:00 +32°C° 0.2 mm 1 m/S 719 mmHg 49%
    18:00 +31°C° 0.2 mm 2 m/S 720 mmHg 54%
    19:00 +30°C° 0.2 mm 2 m/S 720 mmHg 59%
    20:00 +29°C° 0.3 mm 2 m/S 721 mmHg 62%
    21:00 +28°C° 0.3 mm 1 m/S 721 mmHg 65%
    22:00 +28°C° 0.3 mm 1 m/S 721 mmHg 67%
    23:00 +27°C° 0.5 mm 1 m/S 721 mmHg 69%

    Morgen, 18 Juli, Donnerstag

    Zeit Temperatur Niederschläge Wind Luftdruck Luftfeuchtigkeit
    00:00 +27°C° 0.5 mm 1 m/S 721 mmHg 71%
    01:00 +27°C° 0.5 mm 1 m/S 721 mmHg 72%
    02:00 +26°C° 0.2 mm 1 m/S 721 mmHg 73%
    03:00 +26°C° 0.2 mm 1 m/S 721 mmHg 74%
    04:00 +26°C° 0.2 mm 1 m/S 721 mmHg 75%
    05:00 +26°C° 0.1 mm 1 m/S 721 mmHg 75%
    06:00 +26°C° 0.1 mm 1 m/S 721 mmHg 75%
    07:00 +26°C° 0.1 mm 1 m/S 721 mmHg 76%
    08:00 +28°C° 0 mm 2 m/S 722 mmHg 69%
    09:00 +30°C° 0 mm 2 m/S 722 mmHg 63%
    10:00 +31°C° 0 mm 2 m/S 722 mmHg 56%
    11:00 +34°C° 0 mm 2 m/S 722 mmHg 51%
    12:00 +35°C° 0 mm 2 m/S 721 mmHg 45%
    13:00 +36°C° 0 mm 1 m/S 720 mmHg 40%
    14:00 +35°C° 0 mm 1 m/S 720 mmHg 41%
    15:00 +34°C° 0 mm 1 m/S 719 mmHg 43%
    16:00 +34°C° 0 mm 1 m/S 718 mmHg 44%
    17:00 +34°C° 0 mm 2 m/S 719 mmHg 46%
    18:00 +32°C° 0 mm 2 m/S 719 mmHg 49%
    19:00 +31°C° 0 mm 2 m/S 720 mmHg 51%
    20:00 +31°C° 0 mm 2 m/S 720 mmHg 53%
    21:00 +30°C° 0 mm 2 m/S 720 mmHg 55%
    22:00 +30°C° 0 mm 2 m/S 721 mmHg 57%
    23:00 +29°C° 0 mm 2 m/S 721 mmHg 61%

    übermorgen, 19 Juli, Freitag

    Zeit Temperatur Niederschläge Wind Luftdruck Luftfeuchtigkeit
    00:00 +29°C° 0 mm 1 m/S 721 mmHg 64%
    01:00 +28°C° 0 mm 1 m/S 721 mmHg 68%
    02:00 +28°C° 0 mm 2 m/S 720 mmHg 70%
    03:00 +27°C° 0 mm 2 m/S 720 mmHg 71%
    04:00 +27°C° 0 mm 2 m/S 720 mmHg 73%
    05:00 +26°C° 0 mm 3 m/S 721 mmHg 74%
    06:00 +26°C° 0 mm 3 m/S 721 mmHg 75%
    07:00 +26°C° 0 mm 4 m/S 721 mmHg 76%
    08:00 +27°C° 0 mm 3 m/S 722 mmHg 70%
    09:00 +29°C° 0 mm 3 m/S 722 mmHg 65%
    10:00 +30°C° 0 mm 3 m/S 723 mmHg 59%
    11:00 +31°C° 0 mm 3 m/S 722 mmHg 57%
    12:00 +31°C° 0 mm 3 m/S 722 mmHg 55%
    13:00 +33°C° 0 mm 3 m/S 721 mmHg 53%
    14:00 +33°C° 0.1 mm 3 m/S 721 mmHg 53%
    15:00 +33°C° 0.1 mm 3 m/S 720 mmHg 52%
    16:00 +33°C° 0.1 mm 3 m/S 719 mmHg 52%
    17:00 +31°C° 0 mm 3 m/S 720 mmHg 55%
    18:00 +30°C° 0 mm 3 m/S 720 mmHg 58%
    19:00 +29°C° 0 mm 3 m/S 720 mmHg 61%
    20:00 +28°C° 0 mm 3 m/S 721 mmHg 62%
    21:00 +28°C° 0 mm 3 m/S 721 mmHg 63%
    22:00 +27°C° 0 mm 3 m/S 721 mmHg 64%
    23:00 +27°C° 0 mm 3 m/S 721 mmHg 65%

    20 Juli, Samstag

    Zeit Temperatur Niederschläge Wind Luftdruck Luftfeuchtigkeit
    00:00 +26°C° 0 mm 3 m/S 721 mmHg 65%
    01:00 +26°C° 0 mm 3 m/S 721 mmHg 66%
    02:00 +26°C° 0 mm 3 m/S 721 mmHg 67%
    03:00 +25°C° 0 mm 2 m/S 721 mmHg 69%
    04:00 +25°C° 0 mm 2 m/S 720 mmHg 71%
    05:00 +25°C° 0 mm 2 m/S 721 mmHg 71%
    06:00 +25°C° 0 mm 2 m/S 722 mmHg 72%
    07:00 +25°C° 0 mm 3 m/S 722 mmHg 72%
    08:00 +27°C° 0 mm 3 m/S 723 mmHg 67%
    09:00 +28°C° 0 mm 3 m/S 723 mmHg 62%
    10:00 +30°C° 0 mm 3 m/S 724 mmHg 57%
    11:00 +31°C° 0 mm 3 m/S 723 mmHg 52%
    12:00 +34°C° 0 mm 3 m/S 722 mmHg 47%
    13:00 +35°C° 0 mm 2 m/S 722 mmHg 42%
    14:00 +35°C° 0 mm 2 m/S 721 mmHg 43%
    15:00 +34°C° 0 mm 2 m/S 720 mmHg 44%
    16:00 +34°C° 0 mm 2 m/S 720 mmHg 44%
    17:00 +32°C° 0 mm 2 m/S 720 mmHg 49%
    18:00 +30°C° 0 mm 2 m/S 720 mmHg 54%
    19:00 +29°C° 0 mm 2 m/S 720 mmHg 59%
    20:00 +29°C° 0 mm 2 m/S 721 mmHg 61%
    21:00 +28°C° 0 mm 2 m/S 721 mmHg 64%
    22:00 +27°C° 0 mm 2 m/S 722 mmHg 67%
    23:00 +27°C° 0.3 mm 2 m/S 722 mmHg 68%

    21 Juli, Sonntag

    Zeit Temperatur Niederschläge Wind Luftdruck Luftfeuchtigkeit
    00:00 +27°C° 0.3 mm 2 m/S 722 mmHg 69%
    01:00 +26°C° 0.3 mm 3 m/S 722 mmHg 70%
    02:00 +26°C° 0 mm 3 m/S 722 mmHg 71%
    03:00 +26°C° 0 mm 2 m/S 721 mmHg 72%
    04:00 +25°C° 0 mm 2 m/S 721 mmHg 73%
    05:00 +25°C° 0 mm 3 m/S 722 mmHg 73%
    06:00 +25°C° 0 mm 3 m/S 722 mmHg 73%
    07:00 +25°C° 0 mm 3 m/S 723 mmHg 73%
    08:00 +27°C° 0 mm 4 m/S 723 mmHg 67%
    09:00 +28°C° 0 mm 4 m/S 724 mmHg 61%
    10:00 +30°C° 0 mm 4 m/S 724 mmHg 56%
    11:00 +32°C° 0.1 mm 4 m/S 723 mmHg 52%
    12:00 +33°C° 0.1 mm 3 m/S 723 mmHg 48%
    13:00 +34°C° 0.1 mm 3 m/S 722 mmHg 44%
    14:00 +34°C° 0 mm 2 m/S 722 mmHg 43%
    15:00 +34°C° 0 mm 2 m/S 721 mmHg 42%
    16:00 +33°C° 0 mm 1 m/S 720 mmHg 40%
    17:00 +32°C° 0 mm 1 m/S 720 mmHg 43%
    18:00 +31°C° 0 mm 1 m/S 721 mmHg 47%
    19:00 +30°C° 0 mm 1 m/S 721 mmHg 50%
    20:00 +29°C° 0 mm 1 m/S 721 mmHg 53%
    21:00 +28°C° 0 mm 2 m/S 722 mmHg 57%
    22:00 +28°C° 0 mm 2 m/S 722 mmHg 60%
    23:00 +27°C° 0 mm 2 m/S 722 mmHg 62%

    22 Juli, Montag

    Zeit Temperatur Niederschläge Wind Luftdruck Luftfeuchtigkeit
    00:00 +27°C° 0 mm 2 m/S 722 mmHg 64%
    01:00 +27°C° 0 mm 3 m/S 722 mmHg 67%
    02:00 +26°C° 0 mm 3 m/S 722 mmHg 69%
    03:00 +26°C° 0 mm 3 m/S 722 mmHg 71%
    04:00 +25°C° 0 mm 3 m/S 722 mmHg 73%
    05:00 +25°C° 0 mm 3 m/S 722 mmHg 73%
    06:00 +25°C° 0 mm 3 m/S 722 mmHg 73%
    07:00 +25°C° 0 mm 2 m/S 723 mmHg 73%
    08:00 +26°C° 0 mm 2 m/S 723 mmHg 69%
    09:00 +27°C° 0 mm 2 m/S 723 mmHg 64%
    10:00 +28°C° 0 mm 2 m/S 724 mmHg 60%
    11:00 +30°C° 0 mm 2 m/S 723 mmHg 54%
    12:00 +32°C° 0 mm 2 m/S 722 mmHg 48%
    13:00 +34°C° 0 mm 2 m/S 722 mmHg 42%
    14:00 +35°C° 0 mm 2 m/S 721 mmHg 41%
    15:00 +34°C° 0 mm 1 m/S 720 mmHg 39%
    16:00 +34°C° 0 mm 1 m/S 720 mmHg 38%
    17:00 +33°C° 0 mm 1 m/S 720 mmHg 41%
    18:00 +32°C° 0 mm 1 m/S 720 mmHg 45%
    19:00 +31°C° 0 mm 1 m/S 720 mmHg 49%
    20:00 +30°C° 0 mm 1 m/S 721 mmHg 52%
    21:00 +29°C° 0 mm 1 m/S 721 mmHg 54%
    22:00 +29°C° 0 mm 1 m/S 721 mmHg 57%
    23:00 +28°C° 0 mm 1 m/S 721 mmHg 58%
    Mehr zeigen